Location: Cincinnati Observatory Center
(39.1389°N, 84.4225°W)
Time: 15:56:56
(UTC-04:00)

Amateur Radio Satellites - All Passes

Search period start: 20 September 2017 15:26
Search period end: 21 September 2017 15:26
Location: Cincinnati Observatory Center, 39.1389°N, 84.4225°W

Satellite Date Start Highest point End Downlink Frequencies (MHz)
Time Altitude Azimuth
Oscar 19 20 Sep 15:35:17 15:38:55 19° 267° (W) 15:42:34 437.125/150
DX 1 20 Sep 15:42:25 15:46:33 45° 288° (WNW) 15:50:40 434.975-435.025
UKube-1 20 Sep 15:43:05 15:47:22 70° 285° (WNW) 15:51:39 .
YUBILEINY 20 Sep 15:47:24 15:53:27 20° 295° (WNW) 15:59:32 435.215
PCSat 20 Sep 15:54:47 15:59:54 44° 111° (ESE) 16:05:02 145.827
AO-7 20 Sep 15:56:01 16:04:19 72° 69° (ENE) 16:12:36 .
NO-84 20 Sep 15:57:27 16:00:48 31° 323° (NW) 16:03:54 435.350 FM
ITUPSAT 1 20 Sep 16:07:31 16:11:21 23° 95° (E) 16:15:09 437.325
MOZHAYETS 4 20 Sep 16:12:52 16:16:47 27° 95° (E) 16:20:41
ITAMSAT 1 20 Sep 16:30:09 16:35:20 84° 256° (WSW) 16:40:32 435.822/435.867
SO-50 20 Sep 16:32:54 16:37:08 41° 307° (NW) 16:41:25 436.795
BEESAT 20 Sep 16:46:01 16:50:46 60° 101° (ESE) 16:55:29 436.000
RS-15 20 Sep 17:34:47 17:45:25 42° 253° (WSW) 17:55:35 29.354- 29.394
PCSat 20 Sep 17:38:55 17:43:26 27° 309° (NW) 17:48:01 145.827
ITUPSAT 1 20 Sep 17:44:50 17:49:12 35° 291° (WNW) 17:53:33 437.325
MOZHAYETS 4 20 Sep 17:49:53 17:53:52 29° 291° (WNW) 17:57:48
AO-7 20 Sep 17:51:25 17:57:41 23° 266° (W) 18:04:00 .
XW-2C 20 Sep 17:51:31 17:53:16 13° 66° (ENE) 17:55:00 145.795 - 145.815
CUTE-I 20 Sep 17:54:27 17:58:00 18° 63° (ENE) 18:01:33 437.470
LilacSat-2 20 Sep 17:58:36 18:01:07 17° 68° (ENE) 18:03:38 437.200
CUBESAT XI-V 20 Sep 18:06:03 18:10:43 90° 103° (ESE) 18:15:19 437.345
NUDT-PHONESAT 20 Sep 18:08:21 18:10:20 14° 67° (ENE) 18:12:19 437.300
DOVE 4 20 Sep 18:09:29 18:14:03 87° 78° (ENE) 18:18:24 437.250
BEESAT 20 Sep 18:25:22 18:28:00 15° 297° (WNW) 18:30:38 436.000
KAITUO 1B 20 Sep 18:29:43 18:32:55 26° 71° (ENE) 18:36:07 145.475/437.950
KKS-1 20 Sep 18:35:09 18:39:34 63° 102° (ESE) 18:43:58 437.445
CUTE 1.7 + AOD 2 20 Sep 18:43:01 18:44:06 11° 63° (ENE) 18:45:10 437.475
XW-2D 20 Sep 18:49:47 18:53:36 69° 75° (ENE) 18:57:26 145.860 - 145.880
HO-68 20 Sep 19:01:38 19:07:57 36° 64° (ENE) 19:14:19 435.675
XW-2B 20 Sep 19:02:00 19:05:50 86° 254° (WSW) 19:09:42 145.730 - 145.750
XW-2F 20 Sep 19:04:53 19:08:42 83° 256° (WSW) 19:12:34 145.980 - 146.000
STARS 20 Sep 19:09:34 19:13:56 60° 102° (ESE) 19:18:16 437.465
XW-2C 20 Sep 19:23:21 19:27:02 43° 261° (W) 19:30:44 145.795 - 145.815
LilacSat-2 20 Sep 19:31:37 19:35:07 32° 263° (W) 19:38:38 437.200
CUTE-I 20 Sep 19:32:22 19:37:35 56° 260° (W) 19:42:48 437.470
NUDT-PHONESAT 20 Sep 19:40:22 19:43:50 37° 262° (W) 19:47:22 437.300
STRAND 1 20 Sep 19:50:15 19:52:35 13° 91° (E) 19:54:56 437.568
SEEDS 20 Sep 19:54:08 19:58:07 41° 73° (ENE) 20:02:07 437.485
KAITUO 1B 20 Sep 20:04:07 20:06:52 19° 266° (W) 20:09:38 145.475/437.950
CUBEBUG 2 20 Sep 20:08:29 20:12:34 52° 74° (ENE) 20:16:46 437.445
KKS-1 20 Sep 20:13:45 20:15:34 12° 297° (WNW) 20:17:24 437.445
CUTE 1.7 + AOD 2 20 Sep 20:15:04 20:19:19 67° 259° (WSW) 20:23:37 437.475
UWE-3 20 Sep 20:22:46 20:26:47 43° 72° (ENE) 20:30:55 435.000/436.395/437.385
BEESAT 3 20 Sep 20:24:28 20:26:55 16° 110° (ESE) 20:29:23 437.485
AAUSAT CUBESAT 2 20 Sep 20:27:25 20:31:22 43° 73° (ENE) 20:35:19 437.432
Tancredo 1 20 Sep 20:29:08 20:30:48 15° 132° (SE) 20:32:28 437.200
STARS 20 Sep 20:47:49 20:49:44 13° 297° (WNW) 20:51:40 437.465
XW-2A 20 Sep 20:48:37 20:51:56 52° 260° (W) 20:55:18 145.665 - 145.685
HO-68 20 Sep 20:48:49 20:55:31 43° 261° (W) 21:02:16 435.675
NO-84 20 Sep 20:55:30 20:56:44 12° 26° (NNE) 20:57:58 435.350 FM
AO-73 20 Sep 21:17:09 21:21:26 86° 76° (ENE) 21:25:51 145.935
ZACube-1 20 Sep 21:17:54 21:22:10 83° 258° (WSW) 21:26:36 437.345
Oscar 11 20 Sep 21:20:18 21:24:35 65° 76° (ENE) 21:28:56 .
STRAND 1 20 Sep 21:27:06 21:32:13 69° 286° (WNW) 21:37:19 437.568
SEEDS 20 Sep 21:31:26 21:33:57 15° 268° (W) 21:36:30 437.485
nSIGHT-1 20 Sep 21:47:01 21:49:21 19° 131° (SE) 21:51:43 .
CUBEBUG 2 20 Sep 21:47:58 21:49:32 12° 270° (W) 21:51:08 437.445
AO-85 20 Sep 21:59:03 22:02:53 59° 118° (ESE) 22:06:44 145.980
BEESAT 2 20 Sep 21:59:25 22:03:19 55° 118° (ESE) 22:07:17 435.950
BEESAT 3 20 Sep 22:00:17 22:04:07 42° 306° (NW) 22:07:58 437.485
UWE-3 20 Sep 22:01:01 22:03:28 15° 269° (W) 22:05:57 435.000/436.395/437.385
Tancredo 1 20 Sep 22:02:37 22:05:09 36° 327° (NNW) 22:07:42 437.200
AAUSAT CUBESAT 2 20 Sep 22:04:44 22:07:00 14° 268° (W) 22:09:16 437.432
EO-88 20 Sep 22:14:09 22:17:19 29° 72° (ENE) 22:20:32 145.990 - 145.960
FO-29 20 Sep 22:17:44 22:22:51 40° 99° (E) 22:28:28 435.910
DELFI C3 20 Sep 22:27:10 22:31:08 84° 73° (ENE) 22:35:06 145.870
UNISAT 6 20 Sep 22:28:24 22:31:22 17° 92° (E) 22:34:20 437.425
NO-84 20 Sep 22:31:36 22:34:30 76° 224° (SW) 22:37:18 435.350 FM
ISS 20 Sep 22:36:22 22:39:35 59° 138° (SE) 22:42:49 437.550
Max Valier Satellite 20 Sep 22:38:51 22:42:33 87° 76° (ENE) 22:46:18 145.860
TIGRISAT 20 Sep 22:52:15 22:56:14 27° 96° (E) 23:00:12 435.000
PRISM 20 Sep 22:52:58 22:54:52 13° 92° (E) 22:56:45 437.425
ESTCUBE 1 20 Sep 23:00:21 23:02:08 12° 63° (ENE) 23:03:55 437.505/2401.250
Oscar 11 20 Sep 23:00:56 23:01:08 10° 270° (W) 23:01:20 .
LO-87 20 Sep 23:21:41 23:24:32 23° 70° (ENE) 23:27:23 145.935 - 145.965
nSIGHT-1 20 Sep 23:22:23 23:25:28 42° 327° (NNW) 23:28:35 .
SO-50 20 Sep 23:25:21 23:28:22 17° 44° (NE) 23:31:22 436.795
JUGNU 20 Sep 23:34:18 23:35:09 10° 184° (S) 23:36:02 437.505
BEESAT 2 20 Sep 23:38:57 23:41:24 15° 315° (NW) 23:43:51 435.950
AO-85 20 Sep 23:41:41 23:43:38 13° 316° (NW) 23:45:38 145.980
EO-88 20 Sep 23:48:42 23:51:01 16° 267° (W) 23:53:21 145.990 - 145.960
YUBILEINY 20 Sep 23:58:47 00:06:46 38° 73° (ENE) 00:14:44 435.215
FO-29 21 Sep 00:03:25 00:07:48 26° 293° (WNW) 00:12:29 435.910
UNISAT 6 21 Sep 00:03:47 00:08:15 47° 287° (WNW) 00:12:45 437.425
SPROUT 21 Sep 00:07:31 00:09:51 15° 65° (ENE) 00:12:11 437.525
ISS 21 Sep 00:13:44 00:16:17 20° 336° (NNW) 00:18:50 437.550
QB50P2 21 Sep 00:16:26 00:17:16 10° 90° (E) 00:18:06 145.880/145.840
PRISM 21 Sep 00:26:28 00:30:21 44° 287° (WNW) 00:34:12 437.425
TIGRISAT 21 Sep 00:28:50 00:32:49 29° 291° (WNW) 00:36:50 435.000
ESTCUBE 1 21 Sep 00:33:50 00:38:21 67° 259° (WSW) 00:42:52 437.505/2401.250
PCSat 21 Sep 00:43:46 00:48:30 30° 52° (NE) 00:53:12 145.827
AIST 2D 21 Sep 00:51:00 00:54:33 75° 103° (ESE) 00:58:02 435.315
NANOSAT C BR1 21 Sep 00:52:59 00:56:25 23° 95° (E) 00:59:49 145.865
SRMSAT 21 Sep 00:53:02 00:53:53 10° 175° (S) 00:54:45 437.500
LO-87 21 Sep 00:55:25 00:57:53 18° 266° (W) 01:00:23 145.935 - 145.965
nSIGHT-1 21 Sep 01:01:06 01:02:29 12° 346° (NNW) 01:03:51 .
DX 1 21 Sep 01:03:11 01:04:54 12° 63° (ENE) 01:06:36 434.975-435.025
SO-50 21 Sep 01:04:40 01:09:14 65° 242° (WSW) 01:13:50 436.795
VELOX 1 21 Sep 01:17:06 01:21:28 66° 74° (ENE) 01:25:51 145.980
DUCHIFAT 1 21 Sep 01:22:46 01:26:52 44° 99° (E) 01:30:56 145.980
50 SAT 21 Sep 01:25:42 01:28:16 21° 70° (ENE) 01:30:49 437.505
POLYITAN 1 21 Sep 01:31:26 01:35:44 75° 102° (ESE) 01:40:01 437.675
EO-79 21 Sep 01:36:41 01:40:59 86° 106° (ESE) 01:45:15 145.935-145.965
SPROUT 21 Sep 01:41:16 01:45:19 46° 260° (W) 01:49:26 437.525
QB50P2 21 Sep 01:49:10 01:53:24 61° 286° (WNW) 01:57:37 145.880/145.840
YUBILEINY 21 Sep 01:55:30 02:03:36 45° 272° (W) 02:11:43 435.215
Oscar 19 21 Sep 02:08:03 02:11:35 18° 93° (E) 02:15:07 437.125/150
BUGSAT 1 21 Sep 02:10:55 02:14:53 40° 99° (E) 02:18:52 437.445
M-CUBED/EXP-1 PRIME 21 Sep 02:24:05 02:27:26 74° 107° (ESE) 02:30:40 437.505
PCSat 21 Sep 02:26:57 02:31:57 39° 249° (WSW) 02:36:55 145.827
NANOSAT C BR1 21 Sep 02:28:26 02:32:04 28° 290° (WNW) 02:35:41 145.865
UKube-1 21 Sep 02:35:54 02:40:12 83° 76° (ENE) 02:44:31 .
DX 1 21 Sep 02:36:15 02:40:32 61° 258° (WSW) 02:44:50 434.975-435.025
SRMSAT 21 Sep 02:41:35 02:42:05 10° 186° (S) 02:42:36 437.500
Tancredo 1 21 Sep 02:49:38 02:51:31 17° 25° (NNE) 02:53:24 437.200
VELOX 1 21 Sep 02:57:53 02:58:19 10° 270° (W) 02:58:45 145.980
50 SAT 21 Sep 02:58:22 03:00:41 17° 265° (W) 03:03:00 437.505
DUCHIFAT 1 21 Sep 02:59:38 03:02:07 15° 295° (WNW) 03:04:37 145.980
Gurwin Techsat 1B 21 Sep 03:06:02 03:11:08 45° 99° (E) 03:16:12 435.225
ITUPSAT 1 21 Sep 03:13:14 03:17:04 25° 67° (ENE) 03:20:55 437.325
MOZHAYETS 4 21 Sep 03:13:47 03:17:24 23° 67° (ENE) 03:21:03
O/OREOS (USA 219) 21 Sep 03:18:29 03:22:25 31° 104° (ESE) 03:26:26 437.305
ISS 21 Sep 03:29:42 03:31:26 13° 16° (NNE) 03:33:10 437.550
Oscar 19 21 Sep 03:46:11 03:51:09 49° 289° (WNW) 03:56:06 437.125/150
BUGSAT 1 21 Sep 03:47:15 03:49:54 17° 294° (WNW) 03:52:33 437.445
BEESAT 21 Sep 03:51:02 03:55:42 61° 73° (ENE) 04:00:25 436.000
AO-7 21 Sep 04:00:00 04:06:25 24° 94° (E) 04:12:45 .
nSIGHT-1 21 Sep 04:14:36 04:17:17 23° 26° (NNE) 04:19:58 .
Tancredo 1 21 Sep 04:23:37 04:26:15 48° 222° (SW) 04:28:53 437.200
ITAMSAT 1 21 Sep 04:44:17 04:49:06 37° 98° (E) 04:53:52 435.822/435.867
Gurwin Techsat 1B 21 Sep 04:46:43 04:50:44 22° 295° (WNW) 04:54:45 435.225
MOZHAYETS 4 21 Sep 04:50:12 04:54:20 33° 263° (W) 04:58:32
ITUPSAT 1 21 Sep 04:50:25 04:54:42 33° 262° (W) 04:59:02 437.325
O/OREOS (USA 219) 21 Sep 04:58:12 05:01:51 24° 301° (WNW) 05:05:31 437.305
ISS 21 Sep 05:05:16 05:08:31 53° 35° (NE) 05:11:43 437.550
CUBESAT XI-V 21 Sep 05:07:40 05:12:22 77° 76° (ENE) 05:17:05 437.345
BEESAT 21 Sep 05:31:41 05:33:51 13° 269° (W) 05:36:01 436.000
KKS-1 21 Sep 05:31:50 05:36:06 49° 73° (ENE) 05:40:22 437.445
RS-15 21 Sep 05:43:01 05:53:56 41° 106° (ESE) 06:04:56 29.354- 29.394
nSIGHT-1 21 Sep 05:50:37 05:53:46 45° 223° (SW) 05:56:53 .
AO-7 21 Sep 05:51:31 05:59:45 70° 292° (WNW) 06:07:57 .
STARS 21 Sep 06:04:50 06:08:58 45° 72° (ENE) 06:13:08 437.465
DOVE 4 21 Sep 06:09:27 06:12:49 23° 95° (E) 06:16:16 437.250
BEESAT 3 21 Sep 06:17:42 06:21:41 74° 58° (ENE) 06:25:35 437.485
BEESAT 2 21 Sep 06:18:18 06:21:40 24° 50° (NE) 06:24:58 435.950
ITAMSAT 1 21 Sep 06:24:06 06:28:21 26° 294° (WNW) 06:32:36 435.822/435.867
AO-85 21 Sep 06:30:18 06:34:29 39° 53° (NE) 06:38:57 145.980
XW-2B 21 Sep 06:38:10 06:38:54 10° 91° (E) 06:39:38 145.730 - 145.750
XW-2F 21 Sep 06:40:30 06:41:20 11° 91° (E) 06:42:11 145.980 - 146.000
ISS 21 Sep 06:42:41 06:44:40 15° 230° (SW) 06:46:38 437.550
XW-2C 21 Sep 06:57:28 07:00:18 19° 94° (E) 07:03:05 145.795 - 145.815
STRAND 1 21 Sep 07:04:47 07:08:09 18° 63° (ENE) 07:11:31 437.568
LilacSat-2 21 Sep 07:05:48 07:09:05 26° 96° (E) 07:12:20 437.200
KKS-1 21 Sep 07:10:36 07:12:55 14° 268° (W) 07:15:13 437.445
NUDT-PHONESAT 21 Sep 07:11:57 07:14:46 20° 95° (E) 07:17:34 437.300
KAITUO 1B 21 Sep 07:35:05 07:38:40 41° 99° (E) 07:42:12 145.475/437.950
STARS 21 Sep 07:43:03 07:45:31 15° 267° (W) 07:48:00 437.465
AO-7 21 Sep 07:46:44 07:51:02 15° 312° (NW) 07:55:20 .
DOVE 4 21 Sep 07:46:54 07:50:29 28° 289° (WNW) 07:54:10 437.250
CUTE-I 21 Sep 07:50:18 07:55:35 64° 102° (ESE) 08:00:52 437.470
RS-15 21 Sep 07:53:46 08:05:54 62° 308° (NW) 08:18:08 29.354- 29.394
BEESAT 2 21 Sep 07:55:51 07:59:23 29° 246° (WSW) 08:02:51 435.950
XW-2D 21 Sep 07:57:19 08:01:06 66° 284° (WNW) 08:04:51 145.860 - 145.880
CUBEBUG 2 21 Sep 08:01:28 08:03:52 14° 91° (E) 08:06:15 437.445
CUTE 1.7 + AOD 2 21 Sep 08:01:36 08:04:55 22° 94° (E) 08:08:12 437.475
XW-2B 21 Sep 08:09:39 08:13:20 47° 286° (WNW) 08:16:59 145.730 - 145.750
AO-85 21 Sep 08:11:08 08:14:43 23° 248° (WSW) 08:18:29 145.980
XW-2F 21 Sep 08:12:03 08:15:42 46° 286° (WNW) 08:19:19 145.980 - 146.000
UWE-3 21 Sep 08:15:47 08:16:48 11° 89° (E) 08:17:48 435.000/436.395/437.385
HO-68 21 Sep 08:17:15 08:23:58 41° 98° (E) 08:30:38 435.675
XW-2C 21 Sep 08:31:14 08:34:26 26° 290° (WNW) 08:37:37 145.795 - 145.815
FO-29 21 Sep 08:31:54 08:34:55 15° 63° (ENE) 08:37:49 435.910
LilacSat-2 21 Sep 08:40:23 08:43:11 20° 291° (WNW) 08:45:57 437.200
STRAND 1 21 Sep 08:41:54 08:46:52 53° 260° (W) 08:51:52 437.568
NUDT-PHONESAT 21 Sep 08:45:32 08:48:34 24° 290° (WNW) 08:51:34 437.300
AO-73 21 Sep 09:06:54 09:10:10 19° 93° (E) 09:13:23 145.935
ZACube-1 21 Sep 09:07:44 09:11:18 22° 94° (E) 09:14:50 437.345
Oscar 11 21 Sep 09:10:19 09:12:22 13° 91° (E) 09:14:23 .
KAITUO 1B 21 Sep 09:10:38 09:12:15 12° 294° (WNW) 09:13:51 145.475/437.950
SEEDS 21 Sep 09:14:07 09:18:19 85° 285° (WNW) 09:22:29 437.485
UNISAT 6 21 Sep 09:27:32 09:29:16 12° 63° (ENE) 09:31:00 437.425
CUTE-I 21 Sep 09:31:49 09:35:04 17° 298° (WNW) 09:38:20 437.470
CUBEBUG 2 21 Sep 09:36:10 09:40:46 57° 286° (WNW) 09:45:24 437.445
CUTE 1.7 + AOD 2 21 Sep 09:37:04 09:40:43 28° 290° (WNW) 09:44:20 437.475
XW-2A 21 Sep 09:43:49 09:47:05 42° 286° (WNW) 09:50:19 145.665 - 145.685
AAUSAT CUBESAT 2 21 Sep 09:45:29 09:49:37 85° 283° (WNW) 09:53:42 437.432
UWE-3 21 Sep 09:49:01 09:53:40 72° 285° (WNW) 09:58:20 435.000/436.395/437.385
TIGRISAT 21 Sep 09:50:27 09:53:34 20° 66° (ENE) 09:56:44 435.000
HO-68 21 Sep 10:05:06 10:11:34 38° 295° (WNW) 10:18:03 435.675
DELFI C3 21 Sep 10:07:26 10:08:28 11° 91° (E) 10:09:31 145.870
RS-15 21 Sep 10:12:09 10:21:38 24° 337° (NNW) 10:31:02 29.354- 29.394
FO-29 21 Sep 10:13:38 10:19:32 71° 257° (WSW) 10:24:55 435.910
AO-73 21 Sep 10:42:14 10:46:30 39° 288° (WNW) 10:50:44 145.935
ZACube-1 21 Sep 10:43:27 10:47:36 34° 289° (WNW) 10:51:43 437.345
Oscar 11 21 Sep 10:44:33 10:48:46 50° 286° (WNW) 10:52:57 .
UNISAT 6 21 Sep 11:01:09 11:05:24 60° 260° (W) 11:09:46 437.425
PRISM 21 Sep 11:13:52 11:17:59 78° 259° (W) 11:22:05 437.425
EO-88 21 Sep 11:16:49 11:20:20 43° 99° (E) 11:23:48 145.990 - 145.960
AIST 2D 21 Sep 11:24:27 11:27:12 21° 70° (ENE) 11:29:57 435.315
TIGRISAT 21 Sep 11:26:05 11:29:59 34° 263° (W) 11:34:00 435.000
DELFI C3 21 Sep 11:39:42 11:43:29 48° 286° (WNW) 11:47:15 145.870
Max Valier Satellite 21 Sep 11:43:25 11:47:07 56° 285° (WNW) 11:50:46 145.860
NANOSAT C BR1 21 Sep 11:44:46 11:47:14 15° 66° (ENE) 11:49:43 145.865
DUCHIFAT 1 21 Sep 12:13:30 12:17:03 28° 70° (ENE) 12:20:38 145.980
LO-87 21 Sep 12:22:04 12:25:22 33° 98° (E) 12:28:38 145.935 - 145.965
POLYITAN 1 21 Sep 12:22:35 12:26:35 45° 73° (ENE) 12:30:38 437.675
EO-79 21 Sep 12:27:36 12:31:40 52° 74° (ENE) 12:35:46 145.935-145.965
ESTCUBE 1 21 Sep 12:27:44 12:31:35 27° 96° (E) 12:35:23 437.505/2401.250
RS-15 21 Sep 12:31:47 12:40:22 21° 13° (NNE) 12:48:42 29.354- 29.394
QB50P2 21 Sep 12:40:04 12:44:16 83° 79° (E) 12:48:31 145.880/145.840
EO-88 21 Sep 12:52:17 12:53:34 11° 294° (WNW) 12:54:49 145.990 - 145.960
AIST 2D 21 Sep 12:57:37 13:00:17 20° 265° (W) 13:02:59 435.315
YUBILEINY 21 Sep 12:58:14 13:06:20 45° 88° (E) 13:14:26 435.215
BUGSAT 1 21 Sep 12:59:52 13:03:04 23° 69° (ENE) 13:06:18 437.445
M-CUBED/EXP-1 PRIME 21 Sep 13:07:37 13:12:01 80° 71° (ENE) 13:16:09 437.505
VELOX 1 21 Sep 13:09:48 13:11:55 13° 92° (E) 13:14:00 145.980
NANOSAT C BR1 21 Sep 13:18:35 13:22:34 42° 261° (W) 13:26:35 145.865
Oscar 19 21 Sep 13:23:35 13:27:46 25° 66° (ENE) 13:31:59 437.125/150
SPROUT 21 Sep 13:27:54 13:31:40 30° 96° (E) 13:35:27 437.525
O/OREOS (USA 219) 21 Sep 13:28:56 13:33:27 51° 66° (ENE) 13:37:55 437.305
NO-84 21 Sep 13:46:25 13:49:28 22° 128° (SE) 13:52:20 435.350 FM
DUCHIFAT 1 21 Sep 13:49:25 13:52:41 22° 265° (W) 13:55:58 145.980
LO-87 21 Sep 13:56:32 13:58:28 14° 293° (WNW) 14:00:23 145.935 - 145.965
POLYITAN 1 21 Sep 14:00:28 14:02:35 14° 268° (W) 14:04:44 437.675
ESTCUBE 1 21 Sep 14:04:32 14:08:16 26° 291° (WNW) 14:11:59 437.505/2401.250
EO-79 21 Sep 14:06:10 14:07:43 12° 269° (W) 14:09:16 145.935-145.965
50 SAT 21 Sep 14:18:54 14:21:33 22° 96° (E) 14:24:11 437.505
UKube-1 21 Sep 14:25:20 14:27:43 14° 93° (E) 14:30:05 .
DX 1 21 Sep 14:25:52 14:29:22 24° 96° (E) 14:32:51 434.975-435.025
Gurwin Techsat 1B 21 Sep 14:25:53 14:31:07 65° 73° (ENE) 14:36:24 435.225
BUGSAT 1 21 Sep 14:35:02 14:38:19 24° 264° (W) 14:41:38 437.445
VELOX 1 21 Sep 14:44:22 14:48:38 51° 287° (WNW) 14:52:52 145.980
RS-15 21 Sep 14:45:32 14:57:05 47° 46° (NE) 15:07:58 29.354- 29.394
YUBILEINY 21 Sep 14:55:16 15:03:11 38° 287° (WNW) 15:11:07 435.215
AO-7 21 Sep 14:57:49 15:04:56 33° 59° (ENE) 15:12:01 .
Oscar 19 21 Sep 15:02:03 15:06:51 38° 262° (W) 15:11:42 437.125/150
SPROUT 21 Sep 15:04:04 15:07:23 22° 292° (WNW) 15:10:43 437.525
O/OREOS (USA 219) 21 Sep 15:09:54 15:12:22 14° 261° (W) 15:14:49 437.305
SO-50 21 Sep 15:17:38 15:22:00 51° 117° (ESE) 15:26:22 436.795
